Back to catalog

USA 267

AliveMilitaryLEO
NORAD 41334·PAYLOAD·🇺🇸 United States

Launched Feb 10, 2016 from Vandenberg Space Force Base

Loading…

Next Passes (next 24 hours)

TLE

AgingSource: Mike McCants

Epoch: Sep 10, 2026, 00:58 UTC

1 41334U 16010A   26253.04052634 0.00000000  00000-0  00000-0 0    08
2 41334 123.0022 109.5651 0005892 145.7518 214.2756 13.41440482    07

Track USA 267 in real time with AllMySat

Download on the App Store